KE0SWK-13 Weather Reports


time (UTC)temp
F
wind
direction
speed
knots
gust
knots
rain 1hr
in
rain 24hr
in
rain mn
in
humidity
%
barometer
mb
20260505140519 49 109 4.3 8.7 0.01 0.48 0.48 81 1012.3
20260505124526 49 205 3.5 4.3 0.01 0.43 0.43 84 1012.7
20260505123521 49 246 4.3 6.1 0.01 0.43 0.43 84 1012.1
20260505122523 49 187 4.3 7.0 0.01 0.43 0.43 85 1011.7
20260505121533 49 114 3.5 7.8 0.01 0.43 0.43 87 1011.5
20260505120523 48 216 2.6 6.1 0.01 0.43 0.43 88 1011.1
20260505115529 48 84 5.2 11.3 0.01 0.43 0.43 88 1010.5
20260505114537 48 284 4.3 6.1 0.00 0.42 0.42 88 1010.0
20260505113526 49 188 4.3 7.0 0.00 0.42 0.42 88 1010.1
20260505112551 49 235 6.1 7.8 0.00 0.42 0.42 88 1009.7
20260505111520 49 234 4.3 8.7 0.00 0.42 0.42 89 1010.7
20260505110526 49 11 2.6 5.2 0.00 0.42 0.42 89 1010.9
20260505101523 49 274 0.9 4.3 0.01 0.42 0.42 91 1011.0
20260505100523 49 354 0.9 4.3 0.07 0.42 0.42 91 1010.5
20260505095539 49 132 4.3 7.0 0.12 0.42 0.42 90 1009.9
20260505094521 49 99 6.1 9.6 0.16 0.42 0.42 89 1008.5
20260505093550 49 110 8.7 18.2 0.17 0.42 0.42 89 1007.9
20260505092520 49 41 8.7 13.9 0.21 0.42 0.42 89 1008.5
20260505091526 49 123 6.1 10.4 0.31 0.41 0.41 89 1008.6
20260505090534 50 60 8.7 12.2 0.35 0.35 0.35 89 1008.6
20260505085523 50 141 12.2 17.4 0.30 0.30 0.30 88 1008.8
20260505084528 51 307 9.6 13.9 0.26 0.26 0.26 87 1009.5
20260505083520 52 295 9.6 13.9 0.25 0.25 0.25 88 1010.1
20260505082523 52 267 9.6 15.6 0.21 0.21 0.21 87 1010.1
20260505081530 54 265 11.3 15.6 0.10 0.10 0.10 81 1009.7
20260505080519 60 263 11.3 15.6 0.00 0.00 0.00 63 1008.5
20260505075525 64 268 8.7 13.0 0.00 0.00 0.00 55 1007.6
20260505074522 66 141 6.1 9.6 0.00 0.00 0.00 59 1006.4
20260505073540 67 301 2.6 3.5 0.00 0.00 0.00 67 1006.1
20260505072518 67 245 0.9 2.6 0.00 0.00 0.00 67 1005.7
20260505071547 67 113 0.0 1.7 0.00 0.00 0.00 66 1005.5
20260505070522 67 114 0.9 1.7 0.00 0.00 0.00 66 1005.5
20260505065524 67 137 0.9 1.7 0.00 0.00 0.00 65 1005.5
20260505064538 68 140 0.9 1.7 0.00 0.00 0.00 65 1005.7
20260505063524 67 125 0.0 1.7 0.00 0.00 0.00 65 1005.9
20260505062530 68 70 0.9 1.7 0.00 0.00 0.00 65 1006.1
20260505061522 68 304 0.0 1.7 0.00 0.00 0.00 64 1006.1
20260505060547 68 126 0.0 1.7 0.00 0.00 0.00 64 1006.3
20260505055531 68 214 0.9 1.7 0.00 0.00 0.00 64 1006.1
20260505054521 68 359 0.9 2.6 0.00 0.00 0.00 64 1006.0
20260505053527 68 147 0.9 2.6 0.00 0.00 0.00 64 1005.5
20260505052542 68 183 0.9 2.6 0.00 0.00 0.00 64 1005.1
20260505051522 68 106 1.7 2.6 0.00 0.00 0.00 64 1005.1
20260505050520 68 327 0.9 2.6 0.00 0.00 0.00 64 1005.2
20260505041546 69 90 0.0 1.7 0.00 0.00 0.00 62 1006.4
20260505040531 70 186 0.9 2.6 0.00 0.00 0.00 62 1006.4
20260505035541 70 71 0.0 1.7 0.00 0.00 0.00 61 1006.4
20260505034528 70 129 0.9 2.6 0.00 0.00 0.00 60 1006.5
20260505033533 71 201 0.9 1.7 0.00 0.00 0.00 60 1006.5
20260505032542 71 298 1.7 3.5 0.00 0.00 0.00 59 1006.4
20260505031609 71 247 0.9 1.7 0.00 0.00 0.00 58 1006.3
20260505030543 72 178 1.7 2.6 0.00 0.00 0.00 58 1006.3
20260505025524 72 93 1.7 1.7 0.00 0.00 0.00 58 1006.3
20260505024540 72 50 1.7 3.5 0.00 0.00 0.00 57 1006.1
20260505023519 73 113 0.9 2.6 0.00 0.00 0.00 57 1006.0
20260505022525 73 346 1.7 3.5 0.00 0.00 0.00 56 1005.8
20260505021526 73 331 1.7 3.5 0.00 0.00 0.00 57 1005.6
20260505020521 74 133 1.7 3.5 0.00 0.00 0.00 56 1005.5
20260505015523 74 85 1.7 2.6 0.00 0.00 0.00 55 1005.4
20260505014553 74 98 1.7 3.5 0.00 0.00 0.00 54 1005.2
20260505013523 75 170 1.7 3.5 0.00 0.00 0.00 54 1005.0
20260505012529 75 140 1.7 3.5 0.00 0.00 0.00 54 1004.8
20260505011537 75 56 1.7 3.5 0.00 0.00 0.00 53 1004.7
20260505010527 75 16 2.6 3.5 0.00 0.00 0.00 54 1004.7
20260505005530 76 144 1.7 3.5 0.00 0.00 0.00 54 1004.6
20260505004520 76 4 1.7 3.5 0.00 0.00 0.00 53 1004.5
20260505003526 77 359 1.7 2.6 0.00 0.00 0.00 53 1004.4
20260505002521 77 3 1.7 3.5 0.00 0.00 0.00 52 1004.4
20260505001522 78 101 2.6 4.3 0.00 0.00 0.00 51 1004.3
20260505000519 79 96 0.9 2.6 0.00 0.00 0.00 50 1004.3
20260504235527 79 98 1.7 2.6 0.00 0.00 0.00 49 1004.2
20260504234523 80 117 1.7 3.5 0.00 0.00 0.00 48 1004.3
20260504233525 80 140 1.7 3.5 0.00 0.00 0.00 47 1004.3
20260504232532 81 75 2.6 4.3 0.00 0.00 0.00 46 1004.3
20260504231525 80 105 1.7 3.5 0.00 0.00 0.00 47 1004.3
20260504230531 80 108 1.7 2.6 0.00 0.00 0.00 47 1004.3
20260504225520 80 336 1.7 3.5 0.00 0.00 0.00 47 1004.3
20260504224527 80 189 2.6 3.5 0.00 0.00 0.00 46 1004.2
20260504223535 81 91 2.6 4.3 0.00 0.00 0.00 44 1004.4
20260504222545 81 123 2.6 6.1 0.00 0.00 0.00 44 1004.3
20260504221548 82 47 2.6 5.2 0.00 0.00 0.00 43 1004.2
20260504220522 82 110 2.6 5.2 0.00 0.00 0.00 42 1004.4
20260504215523 83 121 2.6 5.2 0.00 0.00 0.00 42 1004.5
20260504214519 83 84 3.5 5.2 0.00 0.00 0.00 42 1004.5
20260504213519 84 103 3.5 5.2 0.00 0.00 0.00 42 1004.6
20260504212525 83 228 3.5 5.2 0.00 0.00 0.00 42 1004.6
20260504211525 83 356 3.5 5.2 0.00 0.00 0.00 41 1004.5
20260504210520 84 73 2.6 4.3 0.00 0.00 0.00 42 1004.6
20260504205522 84 129 4.3 7.8 0.00 0.00 0.00 41 1004.6
20260504204532 83 289 3.5 4.3 0.00 0.00 0.00 41 1004.8
20260504203522 83 46 3.5 5.2 0.00 0.00 0.00 41 1004.9
20260504202529 84 91 3.5 5.2 0.00 0.00 0.00 41 1005.0
20260504201535 84 341 3.5 5.2 0.00 0.00 0.00 41 1005.1
20260504200524 84 103 3.5 7.0 0.00 0.00 0.00 42 1005.2
20260504195529 84 152 3.5 4.3 0.00 0.00 0.00 41 1005.3
20260504194542 83 128 3.5 4.3 0.00 0.00 0.00 41 1005.3
20260504193525 82 99 3.5 6.1 0.00 0.00 0.00 41 1005.4
20260504192519 85 92 3.5 7.0 0.00 0.00 0.00 41 1005.4
20260504191521 84 118 3.5 4.3 0.00 0.00 0.00 41 1005.4
20260504190527 84 67 3.5 4.3 0.00 0.00 0.00 40 1005.5
20260504185545 84 212 3.5 6.1 0.00 0.00 0.00 41 1005.5
20260504184522 83 195 3.5 4.3 0.00 0.00 0.00 41 1005.5
20260504183522 84 170 2.6 5.2 0.00 0.00 0.00 41 1005.7
20260504182530 84 166 4.3 7.8 0.00 0.00 0.00 42 1005.8
20260504181519 83 85 3.5 4.3 0.00 0.00 0.00 43 1005.8
20260504180530 82 92 2.6 5.2 0.00 0.00 0.00 41 1005.9
20260504175519 82 89 3.5 4.3 0.00 0.00 0.00 42 1006.0
20260504174525 82 236 2.6 5.2 0.00 0.00 0.00 43 1006.1
20260504173658 82 57 4.3 5.2 0.00 0.00 0.00 42 1006.1
20260504172522 83 44 2.6 4.3 0.00 0.00 0.00 43 1006.2
20260504171527 82 226 2.6 3.5 0.00 0.00 0.00 44 1006.1
20260504170520 80 33 3.5 5.2 0.00 0.00 0.00 43 1006.3
20260504151019 75 5.2 5.2 0.00 0.00 0.00 45 1007.1
20260504150106 75 284 4.3 6.1 0.00 0.00 0.00 44 1006.9